EW6431 Weather Reports


time (UTC)temp
F
wind
direction
speed
knots
gust
knots
rain 1hr
in
rain 24hr
in
rain mn
in
humidity
%
barometer
mb
20260507065041 49 293 0.0 0.0 0.00 0.00 0.00 83 1017.0
20260507064541 49 293 0.0 0.0 0.00 0.00 0.00 83 1016.8
20260507064042 49 293 0.0 0.0 0.00 0.00 0.00 83 1016.8
20260507063540 49 292 0.0 0.0 0.00 0.00 0.00 83 1016.7
20260507063053 49 292 0.0 0.0 0.00 0.00 0.00 83 1016.8
20260507062541 50 293 0.0 0.0 0.00 0.00 0.00 83 1016.7
20260507062040 50 292 0.0 0.0 0.00 0.00 0.00 83 1016.7
20260507061546 49 293 0.0 0.0 0.00 0.00 0.00 83 1016.6
20260507061040 49 293 0.0 0.0 0.00 0.00 0.00 82 1016.6
20260507060543 50 292 0.0 0.0 0.00 0.00 0.00 82 1016.7
20260507060047 50 292 0.0 0.0 0.00 0.00 0.00 82 1016.7
20260507055539 50 292 0.0 0.0 0.00 0.00 0.00 81 1016.8
20260507055039 50 293 0.0 0.0 0.00 0.00 0.00 81 1016.7
20260507054543 51 292 0.0 0.0 0.00 0.00 0.00 81 1016.6
20260507054039 51 293 0.0 0.0 0.00 0.00 0.00 80 1016.6
20260507053539 51 293 0.0 0.0 0.00 0.00 0.00 79 1016.5
20260507053040 52 293 0.0 0.0 0.00 0.00 0.00 79 1016.5
20260507052538 52 292 0.0 0.0 0.00 0.00 0.00 79 1016.3
20260507052039 52 292 0.0 0.0 0.00 0.00 0.00 79 1016.2
20260507051538 53 293 0.0 0.0 0.00 0.00 0.00 78 1016.2
20260507051037 53 292 0.0 0.0 0.00 0.00 0.00 78 1016.2
20260507050540 53 293 0.0 0.0 0.00 0.00 0.00 78 1016.2
20260507050038 54 293 0.0 0.0 0.00 0.00 0.00 78 1016.2
20260507045539 54 293 0.0 0.0 0.00 0.00 0.00 78 1016.1
20260507045039 54 292 0.0 0.0 0.00 0.00 0.00 78 1015.8
20260507044542 54 292 0.0 0.0 0.00 0.00 0.00 78 1015.8
20260507044037 55 293 0.0 0.0 0.00 0.00 0.00 78 1015.8
20260507043537 55 293 0.0 0.0 0.00 0.00 0.00 79 1015.7
20260507043038 55 292 0.0 0.0 0.00 0.00 0.00 77 1015.8
20260507042536 55 293 0.0 0.0 0.00 0.00 0.00 77 1015.6
20260507042036 55 293 0.0 0.0 0.00 0.00 0.00 77 1015.7
20260507041536 56 292 0.0 0.0 0.00 0.00 0.00 77 1015.6
20260507041036 56 292 0.0 0.0 0.00 0.00 0.00 76 1015.3
20260507040537 56 293 0.0 0.0 0.00 0.00 0.00 76 1015.3
20260507040036 56 293 0.0 0.0 0.00 0.00 0.00 76 1016.4
20260507035536 57 292 0.0 0.0 0.00 0.00 0.00 75 1016.3
20260507035035 58 293 0.0 0.0 0.00 0.00 0.00 74 1016.3
20260507034539 58 293 0.0 0.0 0.00 0.00 0.00 73 1015.9
20260507034036 59 292 0.0 0.0 0.00 0.00 0.00 72 1015.9
20260507033535 59 292 0.0 0.0 0.00 0.00 0.00 73 1015.8
20260507033036 59 293 0.0 0.0 0.00 0.00 0.00 73 1015.7
20260507032539 60 293 0.0 0.0 0.00 0.00 0.00 72 1015.7
20260507032034 60 292 0.0 0.0 0.00 0.00 0.00 72 1015.3
20260507031534 61 293 0.0 0.0 0.00 0.00 0.00 69 1015.3
20260507031035 61 293 0.0 0.0 0.00 0.00 0.00 70 1015.1
20260507030535 62 292 0.0 0.0 0.00 0.00 0.00 68 1015.1
20260507030035 62 292 0.0 0.0 0.00 0.00 0.00 68 1015.9
20260507025534 63 293 0.0 0.0 0.00 0.00 0.00 66 1015.6
20260507025034 64 293 0.0 0.0 0.00 0.00 0.00 67 1015.4
20260507024537 64 292 0.0 0.0 0.00 0.00 0.00 65 1015.4
20260507024034 65 293 0.0 0.0 0.00 0.00 0.00 64 1015.0
20260507023533 66 293 0.0 0.0 0.00 0.00 0.00 63 1015.0
20260507023035 67 292 0.0 0.0 0.00 0.00 0.00 61 1014.9
20260507022533 68 292 0.0 0.0 0.00 0.00 0.00 60 1014.7
20260507022033 69 293 0.0 0.0 0.00 0.00 0.00 58 1014.7
20260507021533 70 292 0.0 0.0 0.00 0.00 0.00 55 1014.5
20260507021036 70 292 0.0 0.0 0.00 0.00 0.00 55 1014.5
20260507020533 71 293 0.0 0.0 0.00 0.00 0.00 54 1014.3
20260507020041 71 319 0.0 0.0 0.00 0.00 0.00 54 1015.5
20260507015534 71 287 0.0 0.0 0.00 0.00 0.00 52 1015.4
20260507015032 71 287 0.0 0.0 0.00 0.00 0.00 54 1015.4
20260507014532 71 291 0.0 0.0 0.00 0.00 0.00 54 1015.4
20260507014033 72 19 0.0 0.0 0.00 0.00 0.00 55 1015.3
20260507013531 72 19 0.9 0.0 0.00 0.00 0.00 54 1015.3
20260507013046 72 21 0.9 0.0 0.00 0.00 0.00 51 1015.4
20260507012531 73 23 0.9 0.0 0.00 0.00 0.00 51 1015.3
20260507012031 73 234 0.0 0.0 0.00 0.00 0.00 52 1015.1
20260507011533 73 11 0.9 0.0 0.00 0.00 0.00 54 1015.1
20260507011033 73 15 0.9 0.0 0.00 0.00 0.00 54 1015.0
20260507010532 73 21 0.9 0.0 0.00 0.00 0.00 53 1015.1
20260507010036 73 22 0.9 0.0 0.00 0.00 0.00 53 1011.4
20260507005530 73 13 1.7 0.0 0.00 0.00 0.00 54 1011.5
20260507005030 73 19 1.7 0.0 0.00 0.00 0.00 55 1011.4
20260507004530 73 15 1.7 0.0 0.00 0.00 0.00 55 1011.4
20260507004030 73 24 2.6 0.0 0.00 0.00 0.00 54 1011.2
20260507003533 73 360 2.6 0.0 0.00 0.00 0.00 54 1011.2
20260507003030 74 13 2.6 0.0 0.00 0.00 0.00 54 1011.1
20260507002531 74 360 3.5 0.0 0.00 0.00 0.00 53 1011.1
20260507002029 74 11 3.5 0.0 0.00 0.00 0.00 52 1011.1
20260507001532 74 16 2.6 0.0 0.00 0.00 0.00 51 1010.9
20260507001028 74 28 2.6 0.0 0.00 0.00 0.00 49 1010.8
20260507000529 74 360 3.5 0.0 0.00 0.00 0.00 50 1010.9
20260507000029 74 12 1.7 0.0 0.00 0.00 0.00 50 1010.8
20260506235529 74 11 1.7 0.0 0.00 0.00 0.00 51 1010.9
20260506235028 74 360 2.6 0.0 0.00 0.00 0.00 52 1011.1
20260506234535 74 20 3.5 0.0 0.00 0.00 0.00 51 1011.1
20260506234028 74 5 2.6 0.0 0.00 0.00 0.00 53 1010.8
20260506233526 74 355 2.6 0.0 0.00 0.00 0.00 55 1010.7
20260506233040 74 355 2.6 0.0 0.00 0.00 0.00 55 1011.0
20260506232527 73 355 2.6 0.0 0.00 0.00 0.00 55 1010.9
20260506232025 74 355 2.6 0.0 0.00 0.00 0.00 55 1010.9
20260506231528 73 13 2.6 0.0 0.00 0.00 0.00 56 1011.0
20260506231023 73 11 2.6 0.0 0.00 0.00 0.00 56 1011.2
20260506230523 73 25 2.6 0.0 0.00 0.00 0.00 56 1011.0
20260506230026 73 13 3.5 0.0 0.00 0.00 0.00 56 1011.3
20260506225522 73 11 3.5 0.0 0.00 0.00 0.00 56 1011.3
20260506225022 73 5 2.6 0.0 0.00 0.00 0.00 56 1011.3
20260506224521 73 360 2.6 0.0 0.00 0.00 0.00 57 1011.5
20260506224022 73 360 2.6 0.0 0.00 0.00 0.00 56 1011.5
20260506223520 72 5 3.5 0.0 0.00 0.00 0.00 56 1011.6
20260506223020 73 32 3.5 0.0 0.00 0.00 0.00 57 1011.6
20260506222521 72 11 3.5 0.0 0.00 0.00 0.00 57 1011.7
20260506222023 72 14 2.6 0.0 0.00 0.00 0.00 56 1011.7
20260506221519 72 21 2.6 0.0 0.00 0.00 0.00 57 1011.7
20260506221018 72 355 2.6 0.0 0.00 0.00 0.00 57 1012.0
20260506220518 72 17 1.7 0.0 0.00 0.00 0.00 57 1011.8
20260506220023 72 342 1.7 0.0 0.00 0.00 0.00 59 1012.0
20260506215517 71 349 2.6 0.0 0.00 0.00 0.00 59 1012.4
20260506215017 71 355 3.5 0.0 0.00 0.00 0.00 57 1012.6
20260506214516 71 24 3.5 0.0 0.00 0.00 0.00 58 1012.6
20260506214017 71 355 3.5 0.0 0.00 0.00 0.00 57 1012.6
20260506213516 71 18 2.6 0.0 0.00 0.00 0.00 57 1012.6
20260506213016 71 339 2.6 0.0 0.00 0.00 0.00 57 1012.5
20260506212515 71 327 2.6 0.0 0.00 0.00 0.00 57 1012.6
20260506212014 70 269 2.6 0.0 0.00 0.00 0.00 58 1012.5
20260506211522 70 355 3.5 0.0 0.00 0.00 0.00 58 1012.8
20260506211013 70 11 3.5 0.0 0.00 0.00 0.00 59 1012.9
20260506210522 69 355 4.3 0.0 0.00 0.00 0.00 60 1012.9
20260506210022 69 351 4.3 0.0 0.00 0.00 0.00 59 1013.0
20260506205512 69 15 4.3 0.0 0.00 0.00 0.00 60 1013.1
20260506205019 68 348 4.3 0.0 0.00 0.00 0.00 60 1013.0
20260506204512 68 32 4.3 0.0 0.00 0.00 0.00 61 1013.0
20260506204012 68 10 4.3 0.0 0.00 0.00 0.00 60 1013.0
20260506203511 68 26 4.3 0.0 0.00 0.00 0.00 59 1013.0
20260506203011 68 11 5.2 0.0 0.00 0.00 0.00 59 1012.9
20260506202513 68 36 4.3 0.0 0.00 0.00 0.00 58 1012.9
20260506202011 69 360 3.5 0.0 0.00 0.00 0.00 58 1013.1
20260506201511 69 10 3.5 0.0 0.00 0.00 0.00 58 1013.0
20260506201015 68 346 3.5 0.0 0.00 0.00 0.00 57 1013.0
20260506200510 69 5 3.5 0.0 0.00 0.00 0.00 56 1013.0
20260506200022 69 355 3.5 0.0 0.00 0.00 0.00 57 1013.0
20260506195511 69 305 3.5 0.0 0.00 0.00 0.00 56 1013.0
20260506195013 68 5 4.3 0.0 0.00 0.00 0.00 57 1013.0
20260506194509 68 338 4.3 0.0 0.00 0.00 0.00 56 1013.0
20260506194009 69 5 3.5 0.0 0.00 0.00 0.00 55 1013.0
20260506193508 69 360 2.6 0.0 0.00 0.00 0.00 55 1013.1
20260506193009 69 316 2.6 0.0 0.00 0.00 0.00 55 1012.9
20260506192508 69 11 3.5 0.0 0.00 0.00 0.00 55 1012.9
20260506192007 68 289 3.5 0.0 0.00 0.00 0.00 55 1013.2
20260506191507 68 355 3.5 0.0 0.00 0.00 0.00 55 1013.2
20260506191007 69 360 2.6 0.0 0.00 0.00 0.00 54 1013.2
20260506190507 69 355 2.6 0.0 0.00 0.00 0.00 54 1013.2
20260506190007 69 346 1.7 0.0 0.00 0.00 0.00 54 1016.3
20260506185511 69 360 1.7 0.0 0.00 0.00 0.00 54 1016.3
20260506185006 69 329 1.7 0.0 0.00 0.00 0.00 53 1016.3
20260506184506 70 11 0.9 0.0 0.00 0.00 0.00 52 1016.4
20260506184010 70 300 0.0 0.0 0.00 0.00 0.00 52 1016.2
20260506183506 70 296 0.0 0.0 0.00 0.00 0.00 53 1016.4
20260506183006 70 300 0.0 0.0 0.00 0.00 0.00 52 1016.4
20260506182505 69 294 0.0 0.0 0.00 0.00 0.00 53 1016.5
20260506182005 69 292 0.0 0.0 0.00 0.00 0.00 53 1016.4
20260506181509 69 287 0.0 0.0 0.00 0.00 0.00 51 1016.6
20260506181005 69 287 0.9 0.0 0.00 0.00 0.00 53 1016.6
20260506180505 69 287 0.9 0.0 0.00 0.00 0.00 53 1016.6
20260506180013 69 283 0.9 0.0 0.00 0.00 0.00 54 1016.6
20260506175503 69 290 0.0 0.0 0.00 0.00 0.00 51 1016.5
20260506175003 70 277 0.0 0.0 0.00 0.00 0.00 50 1016.4
20260506174503 70 113 0.0 0.0 0.00 0.00 0.00 49 1016.4
20260506174004 70 109 0.0 0.0 0.00 0.00 0.00 49 1016.4
20260506173504 71 109 0.0 0.0 0.00 0.00 0.00 48 1016.4
20260506173003 71 105 0.0 0.0 0.00 0.00 0.00 48 1016.3
20260506172501 70 109 0.0 0.0 0.00 0.00 0.00 50 1016.3
20260506172059 69 109 0.0 0.0 0.00 0.00 0.00 51 1016.3
20260506171610 69 107 0.0 0.0 0.00 0.00 0.00 48 1016.3
20260506171059 69 107 0.0 0.0 0.00 0.00 0.00 48 1016.3
20260506170559 69 104 0.0 0.0 0.00 0.00 0.00 47 1016.5
20260506165556 68 111 0.0 0.0 0.00 0.00 0.00 49 1016.3
20260506165055 67 111 0.0 0.0 0.00 0.00 0.00 50 1016.4
20260506164612 67 113 0.0 0.0 0.00 0.00 0.00 49 1016.4
20260506164053 67 113 0.0 0.0 0.00 0.00 0.00 53 1016.5
20260506163553 65 113 0.0 0.0 0.00 0.00 0.00 53 1016.6
20260506163057 64 113 0.0 0.0 0.00 0.00 0.00 53 1016.9
20260506162549 63 113 0.0 0.0 0.00 0.00 0.00 54 1017.2
20260506162047 62 113 0.0 0.0 0.00 0.00 0.00 56 1017.2
20260506161546 62 113 0.0 0.0 0.00 0.00 0.00 57 1017.2
20260506161043 61 113 0.0 0.0 0.00 0.00 0.00 57 1017.4
20260506160543 60 117 0.0 0.0 0.00 0.00 0.00 61 1017.5
20260506160049 59 117 0.0 0.0 0.00 0.00 0.00 60 1017.7
20260506155540 58 117 0.0 0.0 0.00 0.00 0.00 62 1017.3
20260506155040 58 121 0.0 0.0 0.00 0.00 0.00 64 1017.5
20260506154548 57 123 0.0 0.0 0.00 0.00 0.00 65 1017.6
20260506154037 57 123 0.0 0.0 0.00 0.00 0.00 66 1017.6
20260506153535 56 123 0.0 0.0 0.00 0.00 0.00 67 1017.6
20260506153036 56 122 0.0 0.0 0.00 0.00 0.00 67 1017.9
20260506152535 56 122 0.0 0.0 0.00 0.00 0.00 67 1018.0
20260506152033 55 122 0.0 0.0 0.00 0.00 0.00 70 1018.1
20260506151533 54 122 0.0 0.0 0.00 0.00 0.00 73 1018.3
20260506151032 53 122 0.0 0.0 0.00 0.00 0.00 74 1018.5
20260506150529 52 122 0.0 0.0 0.00 0.00 0.00 77 1018.7
20260506150028 50 122 0.0 0.0 0.00 0.00 0.00 81 1018.9
20260506145527 48 122 0.0 0.0 0.00 0.00 0.00 83 1018.5
20260506145024 46 122 0.0 0.0 0.00 0.00 0.00 86 1018.9
20260506144529 45 123 0.0 0.0 0.00 0.00 0.00 87 1019.0
20260506144023 43 123 0.0 0.0 0.00 0.00 0.00 88 1019.0
20260506143521 42 123 0.0 0.0 0.00 0.00 0.00 88 1019.3
20260506143022 42 122 0.0 0.0 0.00 0.00 0.00 89 1019.3
20260506142517 41 123 0.0 0.0 0.00 0.00 0.00 89 1019.5
20260506142016 40 123 0.0 0.0 0.00 0.00 0.00 89 1019.6
20260506141516 39 122 0.0 0.0 0.00 0.00 0.00 90 1019.6
20260506141017 38 122 0.0 0.0 0.00 0.00 0.00 90 1019.8
20260506140516 38 123 0.0 0.0 0.00 0.00 0.00 90 1019.8
20260506140016 38 122 0.0 0.0 0.00 0.00 0.00 90 1019.9
20260506135515 37 123 0.0 0.0 0.00 0.00 0.00 91 1019.4
20260506135015 37 123 0.0 0.0 0.00 0.00 0.00 91 1019.5
20260506134515 36 123 0.0 0.0 0.00 0.00 0.00 91 1019.5
20260506134013 0 0.0 0.0 0.00 0.00 0.00 1016.8
20260506133512 0 0.0 0.0 0.00 0.00 0.00 1016.8
20260506133013 0 0.0 0.0 0.00 0.00 0.00 1016.7
20260506132512 0 0.0 0.0 0.00 0.00 0.00 1016.8
20260506132010 0 0.0 0.0 0.00 0.00 0.00 1016.7
20260506131508 0 0.0 0.0 0.00 0.00 0.00 1016.7
20260506131004 0 0.0 0.0 0.00 0.00 0.00 1016.6
20260506130503 0 0.0 0.0 0.00 0.00 0.00 1016.6
20260506130001 0 0.0 0.0 0.00 0.00 0.00 1016.5
20260506125601 0 0.0 0.0 0.00 0.00 0.00 1016.5
20260506125059 0 0.0 0.0 0.00 0.00 0.00 1016.4
20260506124558 0 0.0 0.0 0.00 0.00 0.00 1016.5
20260506124057 0 0.0 0.0 0.00 0.00 0.00 1016.5
20260506123555 0 0.0 0.0 0.00 0.00 0.00 1016.4
20260506123054 0 0.0 0.0 0.00 0.00 0.00 1016.4
20260506122553 0 0.0 0.0 0.00 0.00 0.00 1016.4
20260506122050 0 0.0 0.0 0.00 0.00 0.00 1016.4
20260506121559 0 0.0 0.0 0.00 0.00 0.00 1016.3
20260506121048 0 0.0 0.0 0.00 0.00 0.00 1016.4
20260506120548 0 0.0 0.0 0.00 0.00 0.00 1016.3
20260506120109 0 0.0 0.0 0.00 0.00 0.00 1016.2
20260506115543 0 0.0 0.0 0.00 0.00 0.00 1015.5
20260506115042 0 0.0 0.0 0.00 0.00 0.00 1015.5
20260506114545 0 0.0 0.0 0.00 0.00 0.00 1015.5
20260506114040 0 0.0 0.0 0.00 0.00 0.00 1015.5
20260506113538 0 0.0 0.0 0.00 0.00 0.00 1015.4
20260506113037 0 0.0 0.0 0.00 0.00 0.00 1015.3
20260506112535 0 0.0 0.0 0.00 0.00 0.00 1015.4
20260506112034 0 0.0 0.0 0.00 0.00 0.00 1015.5
20260506111532 0 0.0 0.0 0.00 0.00 0.00 1015.5
20260506111031 0 0.0 0.0 0.00 0.00 0.00 1015.3
20260506110529 0 0.0 0.0 0.00 0.00 0.00 1015.3
20260506110029 0 0.0 0.0 0.00 0.00 0.00 1015.3
20260506105529 0 0.0 0.0 0.00 0.00 0.00 1015.8
20260506105025 0 0.0 0.0 0.00 0.00 0.00 1015.7
20260506104524 0 0.0 0.0 0.00 0.00 0.00 1015.7
20260506104022 0 0.0 0.0 0.00 0.00 0.00 1015.8
20260506103521 0 0.0 0.0 0.00 0.00 0.00 1015.7
20260506103027 0 0.0 0.0 0.00 0.00 0.00 1015.7
20260506102518 0 0.0 0.0 0.00 0.00 0.00 1015.8
20260506102016 0 0.0 0.0 0.00 0.00 0.00 1015.8
20260506101515 0 0.0 0.0 0.00 0.00 0.00 1015.7
20260506101013 0 0.0 0.0 0.00 0.00 0.00 1015.7
20260506100512 0 0.0 0.0 0.00 0.00 0.00 1015.7
20260506100011 0 0.0 0.0 0.00 0.00 0.00 1015.7
20260506095510 0 0.0 0.0 0.00 0.00 0.00 1016.3
20260506095008 0 0.0 0.0 0.00 0.00 0.00 1016.3
20260506094513 0 0.0 0.0 0.00 0.00 0.00 1016.3
20260506094005 0 0.0 0.0 0.00 0.00 0.00 1016.3
20260506093503 0 0.0 0.0 0.00 0.00 0.00 1016.3
20260506093002 0 0.0 0.0 0.00 0.00 0.00 1016.2
20260506092600 0 0.0 0.0 0.00 0.00 0.00 1016.3
20260506092059 0 0.0 0.0 0.00 0.00 0.00 1016.2
20260506091557 0 0.0 0.0 0.00 0.00 0.00 1016.2
20260506091056 0 0.0 0.0 0.00 0.00 0.00 1016.4
20260506090553 0 0.0 0.0 0.00 0.00 0.00 1016.4
20260506090053 0 0.0 0.0 0.00 0.00 0.00 1016.5
20260506085551 0 0.0 0.0 0.00 0.00 0.00 1016.5
20260506085050 0 0.0 0.0 0.00 0.00 0.00 1016.5
20260506084549 0 0.0 0.0 0.00 0.00 0.00 1016.6
20260506084047 0 0.0 0.0 0.00 0.00 0.00 1016.5
20260506083546 0 0.0 0.0 0.00 0.00 0.00 1016.5
20260506083047 0 0.0 0.0 0.00 0.00 0.00 1016.4
20260506082545 0 0.0 0.0 0.00 0.00 0.00 1016.4
20260506082040 0 0.0 0.0 0.00 0.00 0.00 1016.4
20260506081540 0 0.0 0.0 0.00 0.00 0.00 1016.5
20260506081038 0 0.0 0.0 0.00 0.00 0.00 1016.4
20260506080540 0 0.0 0.0 0.00 0.00 0.00 1016.4
20260506073028 40 123 0.0 0.0 0.00 0.00 0.00 87 1018.2
20260506072526 40 123 0.0 0.0 0.00 0.00 0.00 87 1018.3
20260506072025 40 123 0.0 0.0 0.00 0.00 0.00 87 1018.0
20260506071525 40 122 0.0 0.0 0.00 0.00 0.00 87 1017.9
20260506071022 40 123 0.0 0.0 0.00 0.00 0.00 87 1017.9
20260506070522 40 123 0.0 0.0 0.00 0.00 0.00 87 1017.8